| time (UTC) | temp F | wind direction | speed MPH | gust MPH | rain 1hr in | rain 24hr in | rain mn in | humidity % | barometer mb |
| 20260506044655 | 72 | 219 | 4.0 | 10.0 | 0.00 | 0.00 | 0.00 | 59 | 1013.4 |
| 20260506043052 | 73 | 223 | 3.0 | 11.0 | 0.00 | 0.00 | 0.00 | 58 | 1013.4 |
| 20260506041543 | 73 | 210 | 6.0 | 15.0 | 0.00 | 0.00 | 0.00 | 57 | 1013.3 |
| 20260506040039 | 73 | 212 | 5.0 | 13.0 | 0.00 | 0.00 | 0.00 | 56 | 1013.3 |
| 20260506034541 | 73 | 215 | 5.0 | 12.0 | 0.00 | 0.00 | 0.00 | 56 | 1013.1 |
| 20260506033038 | 73 | 178 | 6.0 | 14.0 | 0.00 | 0.00 | 0.00 | 54 | 1013.0 |
| 20260506031543 | 73 | 240 | 6.0 | 12.0 | 0.00 | 0.00 | 0.00 | 54 | 1012.9 |
| 20260506030031 | 74 | 155 | 5.0 | 14.0 | 0.00 | 0.00 | 0.00 | 53 | 1012.9 |
| 20260506024540 | 74 | 217 | 5.0 | 9.0 | 0.00 | 0.00 | 0.00 | 52 | 1013.1 |
| 20260506023024 | 74 | 220 | 4.0 | 11.0 | 0.00 | 0.00 | 0.00 | 50 | 1013.3 |
| 20260506021523 | 75 | 202 | 3.0 | 10.0 | 0.00 | 0.00 | 0.00 | 49 | 1013.2 |
| 20260506020020 | 75 | 194 | 5.0 | 11.0 | 0.00 | 0.00 | 0.00 | 47 | 1013.3 |
| 20260506014522 | 75 | 236 | 4.0 | 14.0 | 0.00 | 0.00 | 0.00 | 44 | 1013.1 |
| 20260506013017 | 76 | 199 | 3.0 | 7.0 | 0.00 | 0.00 | 0.00 | 42 | 1012.9 |
| 20260506011514 | 76 | 190 | 5.0 | 9.0 | 0.00 | 0.00 | 0.00 | 41 | 1012.7 |
| 20260506010013 | 77 | 201 | 6.0 | 11.0 | 0.00 | 0.00 | 0.00 | 40 | 1012.4 |
| 20260506004511 | 77 | 207 | 5.0 | 9.0 | 0.00 | 0.00 | 0.00 | 39 | 1012.4 |
| 20260506003109 | 78 | 222 | 4.0 | 10.0 | 0.00 | 0.00 | 0.00 | 40 | 1012.2 |
| 20260506001507 | 78 | 186 | 5.0 | 9.0 | 0.00 | 0.00 | 0.00 | 39 | 1012.0 |
| 20260506000007 | 79 | 221 | 5.0 | 9.0 | 0.00 | 0.00 | 0.00 | 37 | 1011.9 |
| 20260505234503 | 80 | 212 | 5.0 | 11.0 | 0.00 | 0.00 | 0.00 | 36 | 1011.9 |
| 20260505233100 | 80 | 205 | 5.0 | 10.0 | 0.00 | 0.00 | 0.00 | 36 | 1011.8 |
| 20260505231700 | 81 | 234 | 5.0 | 11.0 | 0.00 | 0.00 | 0.00 | 34 | 1011.8 |
| 20260505230055 | 81 | 217 | 5.0 | 11.0 | 0.00 | 0.00 | 0.00 | 34 | 1011.7 |
| 20260505224554 | 81 | 226 | 3.0 | 9.0 | 0.00 | 0.00 | 0.00 | 35 | 1011.7 |
| 20260505223101 | 81 | 213 | 5.0 | 15.0 | 0.00 | 0.00 | 0.00 | 33 | 1011.8 |
| 20260505221556 | 82 | 205 | 8.0 | 14.0 | 0.00 | 0.00 | 0.00 | 32 | 1011.8 |
| 20260505220051 | 82 | 219 | 4.0 | 10.0 | 0.00 | 0.00 | 0.00 | 32 | 1011.8 |
| 20260505214603 | 82 | 236 | 5.0 | 12.0 | 0.00 | 0.00 | 0.00 | 32 | 1011.8 |
| 20260505213041 | 82 | 213 | 3.0 | 11.0 | 0.00 | 0.00 | 0.00 | 34 | 1011.6 |
| 20260505211640 | 83 | 207 | 5.0 | 15.0 | 0.00 | 0.00 | 0.00 | 34 | 1011.4 |
| 20260505210038 | 83 | 217 | 5.0 | 11.0 | 0.00 | 0.00 | 0.00 | 35 | 1011.3 |
| 20260505204533 | 83 | 210 | 6.0 | 14.0 | 0.00 | 0.00 | 0.00 | 34 | 1011.3 |
| 20260505203127 | 83 | 255 | 8.0 | 14.0 | 0.00 | 0.00 | 0.00 | 35 | 1011.3 |
| 20260505201518 | 83 | 205 | 9.0 | 15.0 | 0.00 | 0.00 | 0.00 | 34 | 1011.4 |
| 20260505200013 | 83 | 288 | 6.0 | 17.0 | 0.00 | 0.00 | 0.00 | 34 | 1011.5 |
| 20260505194510 | 83 | 210 | 8.0 | 17.0 | 0.00 | 0.00 | 0.00 | 35 | 1011.7 |
| 20260505193009 | 82 | 236 | 8.0 | 17.0 | 0.00 | 0.00 | 0.00 | 36 | 1012.1 |
| 20260505191503 | 82 | 216 | 7.0 | 17.0 | 0.00 | 0.00 | 0.00 | 37 | 1012.3 |
| 20260505190059 | 82 | 219 | 9.0 | 14.0 | 0.00 | 0.00 | 0.00 | 38 | 1012.5 |
| 20260505184557 | 82 | 187 | 9.0 | 13.0 | 0.00 | 0.00 | 0.00 | 36 | 1012.7 |
| 20260505183103 | 81 | 182 | 5.0 | 15.0 | 0.00 | 0.00 | 0.00 | 36 | 1013.0 |
| 20260505181552 | 81 | 217 | 9.0 | 17.0 | 0.00 | 0.00 | 0.00 | 36 | 1013.1 |
| 20260505180050 | 81 | 226 | 7.0 | 15.0 | 0.00 | 0.00 | 0.00 | 39 | 1013.2 |
| 20260505174555 | 81 | 273 | 4.0 | 13.0 | 0.00 | 0.00 | 0.00 | 41 | 1013.4 |
| 20260505173040 | 81 | 236 | 4.0 | 10.0 | 0.00 | 0.00 | 0.00 | 40 | 1013.3 |
| 20260505171534 | 79 | 235 | 7.0 | 16.0 | 0.00 | 0.00 | 0.00 | 40 | 1013.6 |
| 20260505170032 | 79 | 212 | 7.0 | 13.0 | 0.00 | 0.00 | 0.00 | 43 | 1013.7 |
| 20260505164529 | 79 | 215 | 4.0 | 9.0 | 0.00 | 0.00 | 0.00 | 45 | 1014.1 |
| 20260505163025 | 78 | 233 | 4.0 | 11.0 | 0.00 | 0.00 | 0.00 | 47 | 1014.3 |
| 20260505161523 | 77 | 217 | 5.0 | 11.0 | 0.00 | 0.00 | 0.00 | 47 | 1014.4 |
| 20260505153011 | 76 | 222 | 3.0 | 9.0 | 0.00 | 0.00 | 0.00 | 51 | 1014.7 |
| 20260505151507 | 76 | 229 | 4.0 | 9.0 | 0.00 | 0.00 | 0.00 | 50 | 1014.6 |
| 20260505140108 | 72 | 210 | 3.0 | 8.0 | 0.00 | 0.00 | 0.00 | 54 | 1014.4 |
| 20260505124533 | 67 | 219 | 3.0 | 7.0 | 0.00 | 0.00 | 0.00 | 61 | 1014.8 |
| 20260505123028 | 67 | 191 | 3.0 | 7.0 | 0.00 | 0.00 | 0.00 | 61 | 1014.7 |
| 20260505121522 | 66 | 201 | 2.0 | 9.0 | 0.00 | 0.00 | 0.00 | 63 | 1014.7 |
| 20260505120030 | 65 | 268 | 2.0 | 7.0 | 0.00 | 0.00 | 0.00 | 63 | 1014.6 |
| 20260505114512 | 65 | 215 | 3.0 | 7.0 | 0.00 | 0.00 | 0.00 | 63 | 1014.5 |
| 20260505113006 | 64 | 228 | 2.0 | 6.0 | 0.00 | 0.00 | 0.00 | 64 | 1014.3 |
| 20260505111514 | 63 | 191 | 1.0 | 7.0 | 0.00 | 0.00 | 0.00 | 64 | 1014.3 |
| 20260505101555 | 62 | 191 | 2.0 | 4.0 | 0.00 | 0.00 | 0.00 | 64 | 1014.0 |
| 20260505100051 | 62 | 203 | 1.0 | 5.0 | 0.00 | 0.00 | 0.00 | 64 | 1013.7 |
| 20260505094548 | 62 | 217 | 1.0 | 5.0 | 0.00 | 0.00 | 0.00 | 64 | 1013.6 |
| 20260505093055 | 62 | 170 | 0.0 | 3.0 | 0.00 | 0.00 | 0.00 | 64 | 1013.6 |
| 20260505091555 | 62 | 236 | 1.0 | 4.0 | 0.00 | 0.00 | 0.00 | 64 | 1013.5 |
| 20260505090042 | 62 | 253 | 1.0 | 8.0 | 0.00 | 0.00 | 0.00 | 63 | 1013.5 |
| 20260505084542 | 63 | 240 | 3.0 | 7.0 | 0.00 | 0.00 | 0.00 | 63 | 1013.4 |
| 20260505083136 | 63 | 217 | 2.0 | 7.0 | 0.00 | 0.00 | 0.00 | 63 | 1013.4 |
| 20260505081534 | 63 | 174 | 3.0 | 8.0 | 0.00 | 0.00 | 0.00 | 62 | 1013.4 |
| 20260505080032 | 63 | 265 | 2.0 | 11.0 | 0.00 | 0.00 | 0.00 | 62 | 1013.4 |
| 20260505074531 | 63 | 259 | 4.0 | 11.0 | 0.00 | 0.00 | 0.00 | 62 | 1013.4 |
| 20260505073029 | 64 | 224 | 5.0 | 10.0 | 0.00 | 0.00 | 0.00 | 62 | 1013.5 |
| 20260505071532 | 64 | 225 | 5.0 | 11.0 | 0.00 | 0.00 | 0.00 | 62 | 1013.3 |
| 20260505070027 | 64 | 204 | 4.0 | 11.0 | 0.00 | 0.00 | 0.00 | 62 | 1013.3 |
| 20260505064521 | 63 | 219 | 3.0 | 8.0 | 0.00 | 0.00 | 0.00 | 62 | 1013.3 |
| 20260505063019 | 62 | 235 | 2.0 | 4.0 | 0.00 | 0.00 | 0.00 | 63 | 1013.3 |
| 20260505061517 | 62 | 229 | 0.0 | 1.0 | 0.00 | 0.00 | 0.00 | 65 | 1013.4 |
| 20260505060033 | 62 | 217 | 1.0 | 3.0 | 0.00 | 0.00 | 0.00 | 64 | 1013.4 |
| 20260505054513 | 62 | 203 | 0.0 | 0.0 | 0.00 | 0.00 | 0.00 | 64 | 1013.3 |
| 20260505053008 | 63 | 191 | 0.0 | 2.0 | 0.00 | 0.00 | 0.00 | 63 | 1013.4 |
| 20260505051515 | 62 | 210 | 0.0 | 2.0 | 0.00 | 0.00 | 0.00 | 64 | 1013.5 |
| 20260505050107 | 61 | 211 | 0.0 | 3.0 | 0.00 | 0.00 | 0.00 | 67 | 1013.6 |